Tracking 17694 objects as of 28-May-2016
HD Live streaming from Space Station
objects crossing your sky now

ARIANE 5 DEB (SYLDA)

Track ARIANE 5 DEB (SYLDA) now!


NORAD ID: 28914
Int'l Code: 2005-049D
Perigee: 661.9 km
Apogee: 36,026.3 km
Inclination: 4.1 °
Period: 644.5 minutes
Semi major axis: 24715 km
RCS: 22.4158 m2 (large)
Launch date: December 21, 2005
Source: France (FR)
Launch site: FRENCH GUIANA (FRGUI)

Note: This is SATELLITE DEBRIS
Your satellite tracking list
Your tracking list is empty





NASA's NSSDC Master Catalog

Two Line Element Set (TLE):
1 28914U 05049D   16147.55525480 -.00000169 +00000-0 -14560-2 0  9991
2 28914 004.1117 265.6692 7154398 104.1014 179.7682 02.23438852085116
Source of the keplerian elements: AFSPC

N2YO: 692